Penn Yan, NY

9:29 AM EDT on April 22, 2018 (GMT -0400)
Penn Yan

Weather History for KPEO - January, 2013

Change the Weather History Date:

Saturday, January 5, 2013

  Actual Average (KITH) Record (KITH)
Temperature  
Mean Temperature 30 °F -  
Max Temperature 34 °F 33 °F 64 °F (1950)
Min Temperature 27 °F 15 °F -8 °F (1981)
Degree Days  
Heating Degree Days 34    
Moisture  
Dew Point 21 °F    
Average Humidity 66    
Maximum Humidity 72    
Minimum Humidity 59    
Precipitation  
Precipitation 0.00 in - - ()
Sea Level Pressure  
Sea Level Pressure 30.19 in    
Wind  
Wind Speed 10 mph (WSW)    
Max Wind Speed 17 mph    
Max Gust Speed 26 mph    
Visibility 10 miles    
Events      
Averages and records for this station are not official NWS values.
T = Trace of Precipitation, MM = Missing Value Source: NWS Daily Summary

Daily Weather History Graph

Daily Weather History Graph

Search for Another Location

Airport or City:

Astronomy

Jan. 05, 2013 Rise Set
Actual Time 7:38 AM EST 4:49 PM EST
Civil Twilight 7:06 AM EST 5:21 PM EST
Nautical Twilight 6:31 AM EST 5:56 PM EST
Astronomical Twilight 5:57 AM EST 6:30 PM EST
Moon 12:37 AM EST (1/5) 11:42 AM EST (1/5)
Length of Visible Light 10h 14m
Length of Day
9h 11m
Last Quarter, 44% of the Moon is Illuminated
Jan 5
Last Quarter
Jan 11
New
Jan 18
First Quarter
Jan 26
Full
Feb 3
Last Quarter

Hourly Weather History & Observations

Time (EST) Temp. Windchill Dew Point Humidity Pressure Visibility Wind Dir Wind Speed Gust Speed Precip Events Conditions
12:53 AM 32.0 °F 22.5 °F 23.0 °F 69% 30.05 in 10.0 mi West 12.7 mph 24.2 mph N/A   Overcast
1:53 AM 30.9 °F 23.5 °F 23.0 °F 72% 30.09 in 10.0 mi WNW 8.1 mph 20.7 mph N/A   Overcast
2:53 AM 30.9 °F 19.8 °F 21.9 °F 69% 30.11 in 10.0 mi West 16.1 mph 25.3 mph N/A   Overcast
3:15 AM 30.2 °F 18.5 °F 21.2 °F 69% 30.09 in 10.0 mi West 17.3 mph 26.5 mph N/A   Overcast
3:53 AM 30.9 °F 19.8 °F 21.9 °F 69% 30.13 in 10.0 mi West 16.1 mph - N/A   Overcast
4:53 AM 32.0 °F 22.1 °F 21.0 °F 64% 30.14 in 10.0 mi WSW 13.8 mph - N/A   Overcast
5:53 AM 32.0 °F 21.6 °F 21.0 °F 64% 30.17 in 10.0 mi WSW 15.0 mph 23.0 mph N/A   Overcast
6:53 AM 32.0 °F 24.8 °F 21.9 °F 66% 30.22 in 10.0 mi WSW 8.1 mph - N/A   Overcast
7:53 AM 32.0 °F 26.4 °F 21.9 °F 66% 30.23 in 10.0 mi WSW 5.8 mph - N/A   Overcast
8:53 AM 32.0 °F 24.2 °F 21.9 °F 66% 30.27 in 10.0 mi West 9.2 mph - N/A   Overcast
9:53 AM 33.1 °F 26.1 °F 23.0 °F 66% 30.30 in 10.0 mi West 8.1 mph 16.1 mph N/A   Overcast
10:53 AM 33.1 °F 24.9 °F 23.0 °F 66% 30.31 in 10.0 mi WSW 10.4 mph - N/A   Overcast
11:53 AM 34.0 °F 28.0 °F 21.9 °F 61% 30.28 in 10.0 mi West 6.9 mph - N/A   Overcast
12:53 PM 34.0 °F 28.0 °F 21.0 °F 59% 30.25 in 10.0 mi WNW 6.9 mph - N/A   Overcast
1:53 PM 34.0 °F - 21.0 °F 59% 30.24 in 10.0 mi Calm Calm - N/A   Overcast
2:53 PM 33.1 °F 30.0 °F 21.0 °F 61% 30.24 in 10.0 mi West 3.5 mph - N/A   Overcast
3:53 PM 33.1 °F 26.1 °F 19.9 °F 59% 30.24 in 10.0 mi WSW 8.1 mph - N/A   Mostly Cloudy
4:53 PM 30.9 °F 26.2 °F 21.0 °F 67% 30.23 in 10.0 mi South 4.6 mph - N/A   Overcast
5:53 PM 28.9 °F 22.8 °F 19.0 °F 67% 30.22 in 10.0 mi South 5.8 mph - N/A   Mostly Cloudy
6:53 PM 27.0 °F 21.6 °F 19.0 °F 72% 30.20 in 10.0 mi South 4.6 mph - N/A   Clear
7:53 PM 28.0 °F 21.7 °F 19.0 °F 69% 30.18 in 10.0 mi South 5.8 mph - N/A   Clear
8:53 PM 28.0 °F 24.2 °F 19.9 °F 72% 30.16 in 10.0 mi South 3.5 mph - N/A   Clear
9:53 PM 30.0 °F 20.5 °F 21.0 °F 69% 30.14 in 10.0 mi SSW 11.5 mph - N/A   Partly Cloudy
10:53 PM 30.9 °F 21.7 °F 21.0 °F 67% 30.14 in 10.0 mi SSW 11.5 mph - N/A   Overcast
11:53 PM 30.9 °F 24.3 °F 21.0 °F 67% 30.11 in 10.0 mi South 6.9 mph - N/A   Overcast